Naples, FL

10:52 AM EST on February 27, 2017 (GMT -0500)
Naples Municipal

Weather History for KAPF - January, 2014

Change the Weather History Date:

Sunday, January 12, 2014

  Actual Average Record
Temperature  
Mean Temperature 70 °F 64 °F  
Max Temperature 80 °F 75 °F 85 °F (1972)
Min Temperature 59 °F 54 °F 26 °F (1982)
Degree Days  
Heating Degree Days 0 4  
Month to date heating degree days 31 42  
Since 1 July heating degree days 39 120  
Cooling Degree Days 5 3  
Month to date cooling degree days 62 36  
Year to date cooling degree days 62 36  
Growing Degree Days 20 (Base 50)    
Moisture  
Dew Point 61 °F    
Average Humidity 71    
Maximum Humidity 100    
Minimum Humidity 42    
Precipitation  
Precipitation 0.01 in 0.05 in 1.40 in (1964)
Month to date precipitation 0.45 0.65  
Year to date precipitation 0.45 0.65  
Snow  
Snow 0.00 in - - ()
Month to date snowfall 0.0  
Since 1 July snowfall 0.0  
Snow Depth 0.00 in    
Sea Level Pressure  
Sea Level Pressure 30.10 in    
Wind  
Wind Speed 8 mph (North)    
Max Wind Speed 14 mph    
Max Gust Speed 17 mph    
Visibility 9 miles    
Events Rain    
T = Trace of Precipitation, MM = Missing Value Source: NWS Daily Summary

Daily Weather History Graph

Daily Weather History Graph

Search for Another Location

Airport or City:

Trip Planner

Search our weather history database for the weather conditions in past years. The results will help you decide how hot, cold, wet, or windy it might be!

Date:

Astronomy

Jan. 12, 2014 Rise Set
Actual Time 7:16 AM EST 5:54 PM EST
Civil Twilight 6:51 AM EST 6:19 PM EST
Nautical Twilight 6:22 AM EST 6:48 PM EST
Astronomical Twilight 5:54 AM EST 7:16 PM EST
Moon 3:19 PM EST (1/12) 4:16 AM EST (1/12)
Length of Visible Light 11h 28m
Length of Day
10h 38m
Waxing Gibbous, 89% of the Moon is Illuminated
Jan 12
Waxing Gibbous
Jan 15
Full
Jan 24
Last Quarter
Jan 30
New
Feb 6
First Quarter

Hourly Weather History & Observations

Time (EST) Temp. Dew Point Humidity Pressure Visibility Wind Dir Wind Speed Gust Speed Precip Events Conditions
12:53 AM 71.1 °F 68.0 °F 90% 30.04 in 10.0 mi West 8.1 mph - 0.00 in Rain Light Rain
1:31 AM 69.8 °F 69.8 °F 100% 30.05 in 8.0 mi SW 9.2 mph - 0.01 in Rain Light Rain
1:53 AM 70.0 °F 69.1 °F 97% 30.05 in 9.0 mi WSW 10.4 mph - 0.01 in   Partly Cloudy
2:53 AM 70.0 °F 69.1 °F 97% 30.05 in 9.0 mi West 6.9 mph - N/A   Clear
3:37 AM 69.8 °F 69.8 °F 100% 30.05 in 7.0 mi West 5.8 mph - N/A   Mostly Cloudy
3:46 AM 69.8 °F 69.8 °F 100% 30.05 in 7.0 mi West 5.8 mph - N/A   Overcast
3:53 AM 70.0 °F 69.1 °F 97% 30.05 in 6.0 mi West 6.9 mph - N/A   Overcast
4:21 AM 69.8 °F 69.8 °F 100% 30.05 in 5.0 mi West 6.9 mph - N/A   Overcast
4:53 AM 69.1 °F 69.1 °F 100% 30.06 in 5.0 mi WNW 6.9 mph - N/A   Overcast
5:10 AM 69.8 °F 68.0 °F 94% 30.05 in 9.0 mi NW 5.8 mph - N/A   Scattered Clouds
5:53 AM 69.1 °F 64.9 °F 87% 30.06 in 10.0 mi NNW 8.1 mph - N/A   Clear
6:53 AM 68.0 °F 64.9 °F 90% 30.09 in 10.0 mi NNW 8.1 mph - N/A   Clear
7:53 AM 66.9 °F 62.1 °F 84% 30.11 in 9.0 mi North 8.1 mph - N/A   Clear
8:53 AM 68.0 °F 61.0 °F 78% 30.15 in 10.0 mi NNE 12.7 mph - N/A   Partly Cloudy
9:53 AM 69.1 °F 57.0 °F 65% 30.17 in 10.0 mi NE 12.7 mph - N/A   Clear
10:53 AM 72.0 °F 55.0 °F 55% 30.16 in 10.0 mi NNE 6.9 mph - N/A   Clear
11:53 AM 73.9 °F 54.0 °F 50% 30.14 in 10.0 mi NE 8.1 mph 17.3 mph N/A   Clear
12:53 PM 77.0 °F 55.0 °F 47% 30.12 in 10.0 mi North 6.9 mph - N/A   Clear
1:53 PM 77.0 °F 55.0 °F 47% 30.09 in 10.0 mi NE 5.8 mph - N/A   Clear
2:53 PM 79.0 °F 55.0 °F 44% 30.09 in 10.0 mi NE 5.8 mph - N/A   Clear
3:53 PM 79.0 °F 54.0 °F 42% 30.09 in 10.0 mi Variable 3.5 mph - N/A   Clear
4:53 PM 78.1 °F 55.9 °F 46% 30.11 in 10.0 mi NE 4.6 mph - N/A   Clear
5:53 PM 73.0 °F 55.0 °F 53% 30.12 in 10.0 mi Calm Calm - N/A   Clear
6:53 PM 68.0 °F 57.0 °F 68% 30.13 in 10.0 mi ENE 10.4 mph - N/A   Clear
7:53 PM 66.0 °F 57.9 °F 75% 30.15 in 10.0 mi NE 6.9 mph - N/A   Clear
8:53 PM 64.9 °F 57.0 °F 75% 30.16 in 10.0 mi ENE 8.1 mph - N/A   Clear
9:53 PM 64.0 °F 55.9 °F 75% 30.17 in 10.0 mi ENE 9.2 mph - N/A   Clear
10:53 PM 61.0 °F 55.9 °F 83% 30.17 in 10.0 mi NE 6.9 mph - N/A   Clear
11:53 PM 60.1 °F 54.0 °F 80% 30.16 in 10.0 mi ENE 8.1 mph - N/A   Clear